Location: Bats
(43.6587°N, 0.4584°W)
Time: 08:54:46
(UTC+00:00)

SPOT 1/Viking Rocket - Pass Details

Date: 12 January 2026
Orbit: 772 x 789 km, 98.2° (Epoch: 18 February)

Event Time Altitude Azimuth Distance (km) Brightness Sun altitude
Rises 18:35:42 0° 180° (S) 3,259 6.9 -19.2°
Reaches altitude 10° 18:38:05 10° 186° (S) 2,333 6.2 -19.6°
Maximum altitude 18:43:04 49° 261° (W) 998 4.5 -20.5°
Drops below altitude 10° 18:48:04 10° 336° (NNW) 2,338 6.2 -21.3°
Sets 18:50:28 0° 342° (NNW) 3,268 6.9 -21.8°
